Location: Kirkcaldy
(50.3333°N, 113.2333°W)
Time: 20:40:25
(UTC+00:00)

Envisat - Pass Details

Date: 14 June 2023
Orbit: 763 x 764 km, 98.2° (Epoch: 22 September)

Event Time Altitude Azimuth Distance (km) Brightness Sun altitude
Rises 10:33:30 0° 22° (NNE) 3,242 7.9 -6.3°
Reaches altitude 10° 10:36:09 10° 35° (NE) 2,311 7.3 -6.0°
Maximum altitude 10:40:28 27° 93° (E) 1,432 4.9 -5.6°
Drops below altitude 10° 10:44:45 10° 151° (SSE) 2,298 5.3 -5.1°
Sets 10:47:22 0° 163° (SSE) 3,219 5.9 -4.8°
